Regional Weather Roundup
Issued by NWS

Home | Current Version | Previous Version | Text Only | Print | Product List | Glossary Off
Versions: 1 2 3 4 5 6 7 8 9 10 11 12 13 14 15 16 17 18 19 20 21 22 23 24 25 26 27 28 29 30 31 32 33 34 35 36 37 38 39 40 41 42 43 44 45 46 47 48 49 50

260
ASUS43 KLOT 270904
RWRIL

ILLINOIS REGIONAL WEATHER ROUNDUP
NATIONAL WEATHER SERVICE CHICAGO/ROMEOVILLE IL
400 AM CDT THU JUL 27 2017

NOTE: "FAIR" INDICATES FEW OR NO CLOUDS BELOW 12,000 FEET WITH NO
SIGNIFICANT WEATHER AND/OR OBSTRUCTIONS TO VISIBILITY.

* THESE STATIONS ARE NOT UNDER NWS QUALITY CONTROL. THEY ALSO MAY NOT
  REPORT WEATHER SUCH AS PRECIPITATION OR FOG.

ILZ001-002-007-009-015-016-024-271000-
NORTHWEST ILLINOIS

CITY           SKY/WX    TMP DP  RH WIND       PRES   REMARKS
MOLINE         MOCLDY    73  70  90 NW6       29.92S
STERLING*      CLOUDY    71  70  96 N5        29.93R
SAVANNA*       MOCLDY    69  69  99 N5        29.93S
$$

ILZ003-004-008-010-011-017-018-271000-
NORTH CENTRAL ILLINOIS

CITY           SKY/WX    TMP DP  RH WIND       PRES   REMARKS
ROCKFORD       CLOUDY    73  71  93 N3        29.93S
FREEPORT*      MOCLDY    68  68 100 CALM      29.95S FOG
ROCHELLE*      DRIZZLE   71  71 100 N3        29.93S
DE KALB*       CLOUDY    70  69  98 CALM      29.93S
PERU*          CLOUDY    71  70  96 CALM      29.92R
$$

ILZ005-006-012>014-019>023-271000-
NORTHEAST ILLINOIS

CITY           SKY/WX    TMP DP  RH WIND       PRES   REMARKS
CHICAGO-OHARE  CLOUDY    74  70  87 N8        29.90R
CHICAGO-MIDWAY CLOUDY    74  73  97 SW6       29.90S FOG
AURORA         PTCLDY    70  70 100 NW3       29.92S
LANSING*       CLOUDY    72  70  93 SW3       29.91S FOG
JOLIET*        CLOUDY    74  73  96 W3        29.91S
WAUKEGAN       CLOUDY    72  70  93 N5        29.91S
DUPAGE AIRPORT CLOUDY    71  71 100 NW6       29.91S
WHEELING       CLOUDY    73  72  96 N7        29.92S
MORRIS*        CLOUDY    71  70  97 CALM      29.91R
ROMEOVILLE*    CLOUDY    72  69  91 NW7       29.91R
NORTHERLY ISL    N/A     74  70  87 SW1         N/A
$$

LMZ740>746-271000-
SOUTHERN LAKE MICHIGAN

STATION/POSITION SKY/WX   TEMP    WIND        PRES    VSBY  WAVE
                          AIR SEA DIR/SP/G                  HT/PER
                          (F)     (DEG/KT/KT) (MB)    (MI)  (FT/S)
SOUTHERN BUOY              72 70  240/  4/  4 1013.1          1
WILMETTE HARBOR            73 72  330/  6/  8   N/A           1
HARRISON CRIB              75     200/ 11/ 11   N/A
BURNHAM HARBOR             74                   N/A
CALUMET HARBOR             73     200/  2/  4 1012.1F
BURNS HARBOR               72     190/  4/  7 1013.2S
MICHIGAN CITY              74     150/  5/  6   N/A
MICHIGAN CITY 6N           74 74  180/  6/  8   N/A           0
ST. JOSEPH                 74 74  160/  8/ 10 1012.4F         1
$$

ILZ025>027-034>036-040-047-049-050-058-095>099-271000-
WEST-CENTRAL ILLINOIS

CITY           SKY/WX    TMP DP  RH WIND       PRES   REMARKS
QUINCY         CLOUDY    76  74  93 SE6       29.93S
GALESBURG*     CLOUDY    71  71 100 CALM      29.94S
MACOMB*        CLOUDY    73  73  99 CALM      29.95S FOG
JACKSONVILLE*  CLOUDY    74  73  97 S5        29.94R
PITTSFIELD*    RAIN      74  74  98 CALM      29.95F
$$

ILZ028>032-037-038-041>044-048-051>054-059>061-271000-
CENTRAL ILLINOIS

CITY           SKY/WX    TMP DP  RH WIND       PRES   REMARKS
PONTIAC        MOCLDY    70  69  98 CALM      29.93S FOG
BLOOMINGTON    CLOUDY    71  71 100 SW5       29.94R
DECATUR        CLOUDY    74  72  93 SW6       29.93S
PEORIA         FOG       73  73 100 W3        29.92S VSB 3/4
LACON*         CLOUDY    71  71 100 CALM      29.91S
LINCOLN*       CLOUDY    74  74 100 CALM      29.92S
SPRINGFIELD    CLOUDY    75  75 100 S5        29.94R
TAYLORVILLE    CLOUDY    73  73 100 S7        29.95R
$$

ILZ033-039-045-046-055>057-062-063-271000-
EAST-CENTRAL ILLINOIS

CITY           SKY/WX    TMP DP  RH WIND       PRES   REMARKS
CHAMPAIGN      CLOUDY    72  71  97 S8        29.94S
RANTOUL*       CLOUDY    74  73  98 CALM      29.93S
MATTOON        LGT RAIN  73  73 100 SW8       29.95S
PARIS*         LGT RAIN  72  72 100 SW6       29.96S
$$

ILZ079-100>102-271000-
SOUTHWEST ILLINOIS

CITY           SKY/WX    TMP DP  RH WIND       PRES   REMARKS
ALTON          TSTM      73  73 100 NW6       29.95S
BELLEVILLE     LGT RAIN  76  75  95 CALM      29.96S
CAHOKIA*       LGT RAIN  80  75  84 N7        29.95R HX  85
SPARTA*        CLOUDY    79  74  85 S6        29.94S HX  82
$$

ILZ064>066-069>071-074>076-080>082-084>086-088>090-092>094-271000-
SOUTH-CENTRAL ILLINOIS

CITY           SKY/WX    TMP DP  RH WIND       PRES   REMARKS
CARBONDALE     CLOUDY    79  76  90 S3        29.94R HX  83
CAIRO*         CLOUDY    78  75  88 SW6       29.96R HX  81
EFFINGHAM*     HVY RAIN  72  72 100 SE3       29.98S
MARION         CLOUDY    81  79  94 SW3       29.95S HX  89
MT. VERNON     LGT RAIN  75  73  93 NE6       29.94F
CENTRALIA*     RAIN      74  74  99 N7        29.96R
SALEM*         TSTM      74  73  94 CALM      29.97R
METROPOLIS*    CLEAR     77  74  91 S3        29.97S
$$

ILZ067-068-072-073-078-083-087-091-271000-
SOUTHEAST ILLINOIS

CITY           SKY/WX    TMP DP  RH WIND       PRES   REMARKS
LAWRENCEVILLE  LGT RAIN  73  32  22 CALM      29.96F
FLORA*         HVY RAIN  74  73  96 NE8       29.96R
FAIRFIELD*     LGT RAIN  73  73 100 CALM      29.94S
HARRISBURG*    CLOUDY    78  74  87 SW6       29.95R HX  81
ROBINSON*      CLOUDY    72  72  99 CALM      29.96S
CARMI*         CLOUDY    74  73  96 NE8       29.96R
$$

ABBREVIATIONS USED IN REMARKS
   TC - TEMPERATURE IN CELSIUS
  WCI - WIND CHILL INDEX
   HX - HEAT INDEX
  VSB - VISIBILITY
$$





USA.gov is the U.S. government's official web portal to all federal, state and local government web resources and services.